www.pogodaiklimat.ru

ПОГОДА в Ильичёвске

  • Прогноз погоды в Ильичёвске
  • Монитор погоды в Ильичёвске
  • Климат города

АРХИВ ПОГОДЫ в Ильичёвске

Время (UTC), дата Ветер
(напр.,м/с)
 
Видим.   Явления Облачность Т
(С)
Тd
(С)
f
(%)
Тe
(С)
Тes
(С)
Комфортность P
(гПа)
Po
(гПа)
Тmin
(С)
Tmax
(С)
R
(мм)
S
(см)
21 7.04 С 2 10 км 6/0
[Ac und]
+10.3 +5.5 72 +9 +9 1016.6 1017.0
00 8.04 СЗ 2 10 км ясно +6.9 +3.6 79 +5 +5 1016.8 1017.0
03 8.04 СЗ 2 10 км ясно +5.4 +3.2 86 +3 +3 1016.4 1016.0
06 8.04 СЗ 1 15 км ясно +8.4 +5.0 79 +8 +13 1017.2 1017.0 +4.9
09 8.04 Ю 2 20 км 3/3 600 м
[Cu hum]
+9.2 +6.2 81 +8 +17 1016.8 1017.0
12 8.04 Ю 5 24 км 6/1 600 м
[Cu hum Ci fib]
+10.4 +6.8 78 +7 +12 1015.0 1015.0
15 8.04 Ю 3 25 км 4/0
[Ci fib]
+12.0 +7.3 73 +10 +12 1013.1 1013.0
18 8.04 ЮЗ 3 10 км 4/0
[Ci fib]
+10.6 +6.8 77 +9 +9 1013.3 1013.0 +14.6
21 8.04 З 3 10 км 8/0
[Ac und]
+12.5 +7.8 73 +11 +11 1012.4 1012.0
00 9.04 З 2 10 км 10/0
[Ac und]
+12.5 +7.1 70 +12 +12 1011.8 1012.0
03 9.04 З 2 10 км 8/0
[Ac trans Ci fib]
+12.0 +7.0 71 +11 +11 1010.8 1011.0
06 9.04 ЮЗ 1 12 км 3/0
[Ac trans Ci fib]
+12.3 +8.2 76 +12 +17 1010.9 1011.0 +10.5
12 9.04 Ю 6 24 км 6/0
[Ci fib]
+11.4 +9.0 85 +8 +12 1009.3 1009.0
18 9.04 Ю 4 10 км 3/0
[Ac lent Ci fib]
+11.0 +8.1 82 +9 +9 1008.3 1008.0 +12.9
21 9.04 Ю 4 10 км 3/0
[Ac trans]
+10.9 +8.5 85 +8 +8 1007.7 1008.0
00 10.04 СЗ 3 10 км ясно +11.4 +7.0 74 +10 +10 1007.4 1007.0
03 10.04 С 4 10 км 5/0
[As trans]
+10.6 +7.7 82 +8 +8 1007.9 1008.0
06 10.04 СЗ 4 22 км 8/0
[Ac As Cs]
+12.3 +8.2 76 +10 +13 1008.7 1009.0 +8.9
09 10.04 С 3 15 км 8/8 630 м
[Sc]
+14.5 +9.9 74 +14 +16 1009.5 1010.0
12 10.04 В 2 17 км 9/9 700 м
[Sc]
+12.9 +9.8 81 +12 +13 1009.9 1010.0
15 10.04 Ю 1 14 км 9/9 660 м
[Sc]
+11.6 +9.4 86 +11 +12 1009.7 1010.0
21 10.04 ЮВ 2 10 км 8/8 660 м
[Sc]
+8.2 +6.7 90 +6 +6 1011.9 1012.0
00 11.04 ЮВ 4 500 м туман ?/? +7.7 +7.0 95 +4 +4 1012.2 1012.0
03 11.04 В 4 4000 м дымка {туман} 10/10 600 м
[Sc]
+8.0 +7.1 94 +5 +5 1012.8 1013.0
06 11.04 В 4 3000 м дымка {туман} 9/8 480 м
[St As trans]
+8.9 +8.2 95 +6 +6 1014.3 1014.0 +7.3
09 11.04 В 3 5000 м слабый ливневой дождь {туман} 9/8 630 м
[Cb cap Ac cast]
+11.5 +8.9 84 +10 +11 1015.2 1015.0
12 11.04 ЮВ 4 12 км {ливн. осадки, туман} 8/4 600 м
[Cu hum Ac cast Cc]
+11.2 +8.8 85 +9 +12 1015.1 1015.0
18 11.04 ЮВ 5 10 км в посл. час ливневой дождь 10/10 700 м
[Cb cap]
+8.3 +7.4 94 +4 +4 1016.3 1016.0 +12.6 1
21 11.04 В 7 4000 м дымка {ливн. осадки} 10/10 700 м
[Sc]
+7.9 +6.4 90 +3 +3 1016.7 1017.0
00 12.04 В 6 4000 м слабый ливневой дождь 10/10 660 м
[Cb cap]
+7.4 +6.2 92 +3 +3 1016.1 1016.0
03 12.04 В 5 4000 м слабая морось {ливн. осадки} 10/10 500 м
[St]
+7.4 +6.7 95 +3 +3 1015.3 1015.0
06 12.04 В 4 4000 м слабая морось {ливн. осадки} 10/10 540 м
[St]
+7.5 +7.1 97 +4 +4 1015.7 1016.0 +7.0 0.5
09 12.04 В 3 500 м сильная морось {туман} 10/0
[]
+7.8 +7.6 99 +5 +10 1016.9 1017.0
12 12.04 СВ 3 1000 м слабая морось 10/10 420 м
[St]
+8.8 +8.4 97 +6 +6 1016.5 1017.0
15 12.04 СВ 3 4000 м дымка {морось} 10/10 570 м
[St]
+8.2 +7.6 96 +5 +5 1016.5 1017.0
21 12.04 СВ 1 4000 м дымка {морось} 10/10 570 м
[St]
+7.9 +7.3 96 +7 +7 1018.0 1018.0
00 13.04 СВ 1 4000 м дымка {морось} 10/10 570 м
[St]
+7.6 +7.1 97 +7 +7 1017.0 1017.0
03 13.04 штиль 0 10 км 10/10 600 м
[Sc]
+7.7 +6.5 92 +7 +7 1016.1 1016.0
06 13.04 СВ 1 20 км 10/8 570 м
[Cb cap As op]
+8.1 +7.0 93 +7 +7 1017.1 1017.0 +7.5
12 13.04 Ю 3 27 км 8/3 600 м
[Cb cap Cs]
+10.1 +8.5 90 +8 +14 1015.7 1016.0
15 13.04 Ю 3 24 км 8/8 630 м
[Sc]
+9.4 +8.0 91 +7 +7 1015.3 1015.0
18 13.04 Ю 3 10 км 5/5 600 м
[Sc]
+8.6 +7.7 94 +6 +6 1015.6 1016.0 +10.8
21 13.04 Ю 4 10 км 9/9 700 м
[Sc]
+8.9 +8.1 95 +6 +6 1014.8 1015.0
00 14.04 ЮЗ 1 4000 м дымка 8/8 480 м
[St]
+8.5 +7.7 95 +8 +8 1013.8 1014.0
03 14.04 Ю 2 4000 м дымка 9/9 600 м
[Sc]
+8.0 +7.6 97 +6 +6 1013.6 1014.0
06 14.04 Ю 1 9000 м в посл. час туман 9/9 750 м
[Sc]
+9.1 +8.9 99 +8 +9 1014.2 1014.0 +7.6
09 14.04 Ю 5 22 км 8/8 700 м
[Sc]
+11.2 +9.7 90 +8 +10 1014.3 1014.0
12 14.04 Ю 5 27 км 5/5 700 м
[Sc]
+11.3 +9.5 89 +9 +12 1013.3 1013.0
15 14.04 Ю 4 12 км слабый ливневой дождь 9/0
[]
+10.4 +9.2 92 +8 +9 1011.6 1012.0
18 14.04 Ю 3 10 км {ливн. осадки} 4/0
[Ci sp]
+10.0 +9.0 93 +8 +8 1011.5 1012.0 +12.0 0.4
21 14.04 Ю 5 10 км ясно +9.8 +8.4 91 +7 +7 1011.3 1011.0
00 15.04 Ю 5 10 км ясно +9.3 +8.1 92 +6 +6 1010.3 1010.0
03 15.04 Ю 5 10 км ясно +9.2 +8.0 92 +6 +6 1010.0 1010.0
06 15.04 Ю 7 13 км 8/0
[Cc]
+10.3 +9.0 92 +7 +8 1010.8 1011.0 +9.2
09 15.04 Ю 8 16 км 8/0
[Ci fib]
+10.5 +8.9 90 +7 +9 1011.7 1012.0
12 15.04 Ю 9 19 км 8/1 600 м
[Cu hum Ac cast Cc]
+10.8 +9.0 89 +7 +7 1011.5 1012.0

 

Обсудить погоду в Ильичёвске на МЕТЕОФОРУМЕ

 

Местоположение метеостанции Ильичевск (Одесская область, Украина): широта 46.40 долгота 30.70 высота над уровнем моря 52 м.

В архиве по умолчанию представлена погода в Ильичёвске за последнюю неделю. Архивные данные за месяц целиком и за предыдущие месяцы, начиная с января 2011 года, Вы можете получить, выбрав интересующий диапазон дат из раскрывающегося списка и нажав кнопку "Ввод!".

Внимание! Время в таблицах - всемирное. Для получения местного времени необходимо прибавить поправку, которая в Ильичёвске равна 2 ч.

Ветер - указаны скорость ветра в м/с - средняя за 10 мин, порывы в срок и между сроками (в фигурных скобках) и направление, откуда дует ветер: С - северный, СВ - северо-восточный, В - восточный, ЮВ - юго-восточный, Ю - южный, ЮЗ - юго-западный, З - западный, СЗ - северо-западный.
Видимость - горизонтальная дальность видимости в метрах или километрах. При видимости от 1 до 10 км при отсутствии осадков обычно наблюдается дымка, при ухудшении видимости до 1 км и менее - туман. В сухую погоду видимость может ухудшаться дымом, пылью или мглою.
Явления - указаны атсосферные явления, наблюдавшиеся в срок или в последний час перед сроком; фигурными скобками обозначены явления, наблюдавшиеся между сроками (за 1-3 часа до срока); квадратными скобками обозначены град или гололедные отложения с указанием их диаметра в мм.
Облачность - указаны через наклонную черту общая и нижняя облачность в баллах и высота нижней границы облаков в метрах; квадратными скобками обозначены формы облаков: Ci - перистые, Cs - перисто-слоистые, Cc - перисто-кучевые, Ac - высококучевые, As - высокослоистые, Sc - слоисто-кучевые, Ns - слоисто-дождевые, Cu - кучевые, Cb - кучево-дождевые. Подробнее классификацию облаков см. в Атласе облаков (PDF).
T - Температура воздуха - температура, измеренная на высоте 2 м над землей.
Td - Температура точки росы - температура, при понижении до которой содержащийся в воздухе водяной пар достигнет насыщения.
f - Относительная влажность воздуха - влажноcть воздуха, измеренная на высоте 2 м над землей.
Te - Эффективная температура - температура, которую ощущает одетый по сезону человек в тени. Характеристика душности погоды. При расчете учитывается влияние влажности воздуха и скорости ветра на теплоощущения человека.
Tes - Эффективная температура на солнце - температура, которую ощущает человек, с поправкой на солнечный нагрев. Характеристика знойности погоды. Зависит от высоты солнца над горизонтом, облачности и скорости ветра. Ночью, в пасмурную погоду, а также при ветре 12 м/с и более поправка равна нулю.
P - Атмосферное давление - приведенное к уровню моря атмосферное давление.
Po - Атмосферное давление - измеренное на уровне метеостанции атмосферное давление.
Tmin - Минимальная температура - минимум температуры воздуха на высоте 2 м над землей.
Tmax - Максимальная температура - максимум температуры воздуха на высоте 2 м над землей.
R - Количество осадков - Количество выпавших осадков, мм.
S - Снежный покров - Высота снежного покрова, см.